COSMOS 1275 DEB, 12964

Orbit data source: Space-Track

COSMOS 1275 DEB, 12964 is space debris in LEO originally from a launch on Thu, 04 Jun 1981 UTC launched from the Plesetsk Missile And Space Complex (PKMTR). Debris objects in space refer to the collection of defunct objects orbiting the Earth. Examples of debris include non-operational satellites, rocket bodies, and fragments generated from explosions, collisions, or faulty payload assembly.

Loading next visibility...
Identifier
12964, 1981-053EK
Orbit
LEO
Country
Flag of CISCIS
Related business
Manufacturer
Unknown
Mission
Spacecraft
Bus & Motor
Unknown
Mass
Unknown
Launch date (UTC)
1981-06-04 (45 years ago)
Launch vehicle
Unknown
Launch site
Plesetsk Missile And Space Complex (PKMTR)
Object type
Payload
Rocket body
Debris
Shape & HBR
Unknown shape, 0.1 m
Radar Cross Section
Small (<0.1 m²)

Expand to show TLE details & history
Last TLE update: 12 hours ago

TLE from 12 hours ago
0 COSMOS 1275 DEB
1 12964U 81053EK  25351.50554696  .00000036  00000-0  20313-4 0  9997
2 12964  82.9457 251.7363 0037468 287.4603 192.2107 13.80304433223754
Epoch: 2025-12-17T12:07Z
TLE epoch observation values (Epoch: 2025-12-17T12:07:59.257Z)
Latitude
59.75747°
Longitude
151.17484°
Altitude
999.854 km
Speed
7.344 km/s
True Right ascension
03h 58m 11s
True Declination
59° 36' 45"
Sunlit
Object was in full shadow at epoch
Visualization orbit readout
Latitude
Unknown
Longitude
Unknown
Altitude
Unknown
Speed
Unknown
Apparent Right ascension
Unknown
Apparent Declination
Unknown
Sunlit
N/A
Visualization observer readout
Local Sidereal Time
23:03:27
Azimuth
Unknown
Elevation
Unknown
Doppler factor
Unknown
Orbital elements
Apogee altitude
987.443 km
Perigee altitude
932.454 km
Semi-major axis
7,338.085 km
Eccentricity
0.00375
Inclination
82.9457°
RAAN
251.7363°
Arg. of periapsis
287.4603°
True anomaly
192.1203°
Mean anomaly
192.2107°
Eccentric anomaly
192.16546°
Mean motion
3.45278 °/min
Orbital period
104.26 mins
BSTAR
0.000020313
Loading maneuver chart data...
Computing Atmospheric mass density...
Loading historical data...
Loading historical data...
Loading historical data...
Loading historical data...
Loading historical data...
Loading historical data...
Loading historical data...

Documentation

Showing up to 5 results
|